Tracking 20093 objects as of 15-Dec-2019
HD Live streaming from Space Station
objects crossing your sky now

FENGYUN 1C DEB

Track FENGYUN 1C DEB now!
10-day predictions


NORAD ID: 37908
Int'l Code: 1999-025ENH
Perigee: 741.6 km
Apogee: 861.0 km
Inclination: 99.1 °
Period: 100.8 minutes
Semi major axis: 7172 km
RCS: 0.0082 m2 (small)
Launch date: May 10, 1999
Source: People's Republic of China (PRC)
Launch site: Taiyaun Space Center, China (TSC)

Note: This is SATELLITE DEBRIS
aabbcc
Your satellite tracking list
Your tracking list is empty




NASA's NSSDC Master Catalog

Two Line Element Set (TLE):
1 37908U 99025ENH 19348.50496474 +.00000259 +00000-0 +11617-3 0  9991
2 37908 099.0769 240.5519 0083291 031.5184 329.0948 14.29270344327249
Source of the keplerian elements: AFSPC